Location: �clusier
(49.9361°N, 2.7869°E)
Time: 17:32:51
(UTC+00:00)

NOAA 13 - Pass Details

Date: 01 February 2022
Orbit: 842 x 857 km, 98.5° (Epoch: 19 May)

Event Time Altitude Azimuth Distance (km) Brightness Sun altitude
Rises 03:19:15 0° 26° (NNE) 3,428 8.4 -38.8°
Reaches altitude 10° 03:22:26 10° 45° (NE) 2,490 7.8 -38.4°
Maximum altitude 03:26:09 18° 88° (E) 1,968 7.1 -37.8°
Drops below altitude 10° 03:29:52 10° 131° (SE) 2,484 7.4 -37.2°
Sets 03:33:01 0° 149° (SSE) 3,417 8.0 -36.8°
